Location: Hamayl? Da??
(36.7028°N, 30.1716°E)
Time: 07:20:21
(UTC+00:00)

Cosmos 2297 Rocket - Pass Details

Date: 04 August 2024
Orbit: 837 x 844 km, 71.0° (Epoch: 10 September)

Event Time Altitude Azimuth Distance (km) Brightness Sun altitude
Rises 20:14:23 0° 346° (NNW) 3,408 6.4 -30.3°
Reaches altitude 10° 20:17:03 10° 355° (N) 2,470 5.4 -30.6°
Enters shadow 20:21:23 34° 42° (NE) 1,365 3.3 -31.0°
